Regional Weather Roundup
Issued by NWS Newport/Morehead, NC

Current Version | Previous Version | Graphics & Text | Print | Product List | Glossary Off
Versions: 1 2 3 4 5 6 7 8 9 10 11 12 13 14 15 16 17 18 19 20 21 22 23 24 25 26 27 28 29 30 31 32 33 34 35 36 37 38 39 40 41 42 43 44 45 46 47 48 49 50

000
ASUS42 KMHX 291213
RWRMHX
WEATHER ROUNDUP FOR EASTERN NORTH CAROLINA
NATIONAL WEATHER SERVICE NEWPORT/MOREHEAD CITY NC
800 AM EDT SAT AUG 29 2015

NOTE: "FAIR" INDICATES FEW OR NO CLOUDS BELOW 12,000 FEET
WITH NO SIGNIFICANT WEATHER AND/OR OBSTRUCTIONS TO VISIBILITY

NCZ015>017-031-032-045>047-102-103-291300-
NORTH COAST

CITY           SKY/WX    TMP DP  RH WIND       PRES   REMARKS
EDENTON        SUNNY     65  62  91 N3        30.21R
ELIZABETH CITY SUNNY     72  66  81 N8        30.21R
KITTY HAWK     SUNNY     77  64  65 NE6       30.18R
MANTEO         SUNNY     75  66  72 NE13      30.19R

$$

NCZ045>047-081-094-103-104-291300-
CENTRAL COAST

CITY           SKY/WX    TMP DP  RH WIND       PRES   REMARKS
FRISCO         PTSUNNY   74  72  93 NE9       30.15S
SWANQUARTER    NOT AVBL

$$

NCZ095-097-098-100-101-291300-
SOUTHERN COAST

CITY           SKY/WX    TMP DP  RH WIND       PRES   REMARKS
BEAUFORT       MOSUNNY   75  72  90 NE7       30.16R
CEDAR ISLAND   NOT AVBL
JACKSONVILLE   SUNNY     69  65  86 N8        30.18R
PINEY ISLAND   MOSUNNY  N/A N/A N/A N12       30.16R
WILMINGTON     SUNNY     68  65  90 N7        30.18R


$$

NCZ011>013-027>030-043-044-078>080-089-090>093-098-291300-
COASTAL PLAIN

CITY           SKY/WX    TMP DP  RH WIND       PRES   REMARKS
AHOSKIE        SUNNY     60  58  92 CALM      30.23R
CLINTON        SUNNY     65  64  95 CALM      30.21R
ELIZABETHTOWN  MOSUNNY   64  64  97 CALM      30.20R
GOLDSBORO      SUNNY     66  63  92 N3        30.20R
GREENVILLE     SUNNY     63  63 100 N3        30.22R
HAVELOCK       MOSUNNY   73  68  84 N10       30.18R
KENANSVILLE      N/A     64  64  97 CALM      30.22R
KINSTON        SUNNY     64  63  94 N5        30.22R
NEW BERN       SUNNY     70  65  84 N7        30.20R
RICHLANDS      MOSUNNY   66  61  82 N7        30.19R
ROCKY MOUNT    SUNNY     66  63  90 CALM      30.23R
WASHINGTON     SUNNY     66  63  91 CALM      30.20S
WHITEVILLE     MOSUNNY   67  64  89 N3        30.19R

$$

AMZ130-135-150-152-154-156-158-170-250-252-270-ANZ085-086-088-633-658-670-291300-
MARINE OBSERVATIONS

STATION/POSITION TIME  TEMP    WIND        PRES    WAVE   SWELL
                       AIR SEA DIR/SP/G            HT/PER HT/PER
                 (UTC) (F)     (DEG/KT/KT) (MB)    (FT/S) (FT/S)
CHESAPEAKE LIGHT 1200   76      60/ 13/ 14 1023.4
64 E VA BEACH    1150   76 79   50/ 12/ 16 1021.9    4/11   3/11
DUCK             NOT AVBL
2 E DUCK         1111      78                N/A     3/11   2/11
OREGON INLET     NOT AVBL
13E OREGON INLT  1200      78                N/A     4/11   2/11
HATTERAS CG      NOT AVBL
DIAMOND BUOY     1150   78 82   40/ 16/ 17 1020.5    5/11   3/11
CAPE LOOKOUT     1200   78      30/ 17/ 20 1020.5
BEAUFORT LAB     NOT AVBL
30 SE NEW RVR IN 1108   79 81   50/ 17/ 23 1020.5
30 SE NEW RVR IN 1125      81                N/A     5/10   2/12
27 SE WRIGHTSVLE 1100   76 81   60/ 16/ 19   N/A
5 SE WRIGHTSVLE  NOT AVBL
225 S CAPE HAT   1150   83 83  200/ 12/ 14 1020.2    5/11   3/11
41 SE CHARLESTON 1150   81 85   60/ 16/ 17 1019.7    4/ 8   2/ 8

$$



USA.gov is the U.S. government's official web portal to all federal, state and local government web resources and services.